Weather History for Montrose, CO

Change the Weather History Date:

Tuesday, December 25, 2012

  Actual Average Record
Temperature  
Mean Temperature 20 °F 25 °F  
Max Temperature 29 °F 36 °F 51 °F (2005)
Min Temperature 10 °F 14 °F -2 °F (1998)
Degree Days  
Heating Degree Days 45 40  
Month to date heating degree days 846 947  
Since 1 July heating degree days 1988 2368  
Cooling Degree Days 0 0  
Month to date cooling degree days 0 0  
Year to date cooling degree days 906 643  
Moisture  
Dew Point 17 °F    
Average Humidity 78    
Maximum Humidity 92    
Minimum Humidity 63    
Precipitation  
Precipitation 0.01 in 0.02 in 0.11 in (2000)
Month to date precipitation 0.27 0.53  
Year to date precipitation 5.75 11.18  
Sea Level Pressure  
Sea Level Pressure 30.10 in    
Wind  
Wind Speed 5 mph (ESE)    
Max Wind Speed 15 mph    
Max Gust Speed 21 mph    
Visibility 7 miles    
Events Snow    
T = Trace of Precipitation, MM = Missing Value Source: NWS Daily Summary

Daily Weather History Graph

Daily Weather History Graph

Search for Another Location

Airport:

Trip Planner

Search our weather history database for the weather conditions in past years. The results will help you decide how hot, cold, wet, or windy it might be!

Date:

Astronomy

Dec. 25, 2012 Rise Set
Actual Time 7:27 AM MST 4:56 PM MST
Civil Twilight 6:57 AM MST 5:26 PM MST
Nautical Twilight 6:24 AM MST 5:59 PM MST
Astronomical Twilight 5:52 AM MST 6:32 PM MST
Moon 3:06 PM MST (12/25) 5:02 AM MST (12/25)
Length of Visible Light 10h 28m
Length of Day
9h 29m
Waxing Gibbous, 94% of the Moon is Illuminated
Dec 25
Waxing Gibbous
Dec 28
Full
Jan 4
Last Quarter
Jan 11
New
Jan 18
First Quarter

Hourly Weather History & Observations

Time (MST) Temp. Windchill Dew Point Humidity Pressure Visibility Wind Dir Wind Speed Gust Speed Precip Events Conditions
12:53 AM 26.1 °F 16.8 °F 21.0 °F 81% 29.87 in 10.0 mi NW 9.2 mph - N/A   Overcast
1:38 AM 24.8 °F 15.3 °F 21.2 °F 86% 29.90 in 9.0 mi WNW 9.2 mph - 0.00 in Snow Light Snow
1:53 AM 25.0 °F 14.2 °F 19.9 °F 81% 29.92 in 10.0 mi NW 11.5 mph 16.1 mph 0.00 in   Overcast
2:02 AM 24.8 °F 17.9 °F 19.4 °F 80% 29.92 in 10.0 mi Variable 5.8 mph - N/A   Overcast
2:53 AM 25.0 °F 15.5 °F 19.9 °F 81% 29.96 in 5.0 mi NW 9.2 mph 20.7 mph 0.00 in Snow Light Snow
3:53 AM 24.1 °F 17.0 °F 19.9 °F 84% 29.99 in 3.0 mi West 5.8 mph - 0.00 in Snow Light Snow
4:53 AM 24.1 °F 19.7 °F 19.9 °F 84% 30.01 in 3.0 mi West 3.5 mph - 0.00 in Snow Light Snow
5:53 AM 23.0 °F 18.4 °F 19.9 °F 88% 30.05 in 2.0 mi East 3.5 mph - 0.01 in Snow Light Snow
6:10 AM 23.0 °F 18.4 °F 19.4 °F 86% 30.02 in 4.0 mi East 3.5 mph - 0.00 in Snow Light Snow
6:53 AM 21.9 °F 17.2 °F 19.0 °F 89% 30.09 in 2.5 mi NW 3.5 mph - 0.00 in Snow Light Snow
7:41 AM 21.2 °F - 19.4 °F 93% 30.08 in 1.5 mi Calm Calm - 0.00 in Snow Light Snow
7:53 AM 21.9 °F - 19.0 °F 89% 30.13 in 1.5 mi Calm Calm - 0.00 in Snow Light Snow
8:04 AM 21.2 °F - 19.4 °F 93% 30.08 in 2.0 mi Calm Calm - 0.00 in Snow Light Snow
8:21 AM 21.2 °F - 19.4 °F 93% 30.10 in 1.5 mi Calm Calm - 0.00 in Snow Light Snow
8:36 AM 21.2 °F 16.4 °F 19.4 °F 93% 30.10 in 2.0 mi East 3.5 mph - 0.00 in Snow Light Snow
8:53 AM 21.0 °F 14.6 °F 18.0 °F 88% 30.17 in 1.8 mi East 4.6 mph - 0.00 in Snow Light Snow
9:03 AM 21.2 °F 16.4 °F 19.4 °F 93% 30.12 in 1.5 mi East 3.5 mph - 0.00 in Snow Light Snow
9:16 AM 21.2 °F 16.4 °F 19.4 °F 93% 30.12 in 2.0 mi SE 3.5 mph - 0.00 in Snow Light Snow
9:33 AM 21.2 °F 14.9 °F 19.4 °F 93% 30.14 in 3.0 mi East 4.6 mph - 0.00 in Snow Light Snow
9:53 AM 23.0 °F 18.4 °F 19.0 °F 85% 30.20 in 5.0 mi East 3.5 mph - 0.00 in   Overcast
10:53 AM 24.1 °F 17.0 °F 17.1 °F 75% 30.21 in 10.0 mi NW 5.8 mph - 0.00 in   Overcast
11:53 AM 26.1 °F - 17.1 °F 69% 30.19 in 10.0 mi Calm Calm - N/A   Overcast
12:49 PM 28.4 °F 24.6 °F 17.6 °F 64% 30.12 in 10.0 mi North 3.5 mph - N/A   Scattered Clouds
12:53 PM 28.0 °F - 17.1 °F 63% 30.17 in 10.0 mi Calm Calm - N/A   Partly Cloudy
1:53 PM 26.1 °F - 16.0 °F 66% 30.16 in 10.0 mi Calm Calm - N/A   Clear
2:53 PM 27.0 °F - 16.0 °F 63% 30.16 in 10.0 mi Calm Calm - N/A   Clear
3:53 PM 26.1 °F 20.5 °F 16.0 °F 66% 30.15 in 10.0 mi East 4.6 mph - N/A   Clear
4:53 PM 21.0 °F - 15.1 °F 78% 30.16 in 10.0 mi Calm Calm - N/A   Clear
5:53 PM 12.9 °F 1.6 °F 10.0 °F 88% 30.20 in 10.0 mi SE 8.1 mph - N/A   Clear
6:53 PM 12.9 °F 1.6 °F 10.0 °F 88% 30.21 in 10.0 mi SSE 8.1 mph - N/A   Clear
7:53 PM 12.9 °F 0.7 °F 9.0 °F 84% 30.22 in 10.0 mi SSE 9.2 mph - N/A   Clear
8:53 PM 12.0 °F -0.4 °F 8.1 °F 84% 30.21 in 10.0 mi SE 9.2 mph - N/A   Clear
9:53 PM 10.9 °F -0.8 °F 8.1 °F 88% 30.19 in 10.0 mi SE 8.1 mph - N/A   Clear
10:53 PM 12.0 °F 0.5 °F 8.1 °F 84% 30.18 in 10.0 mi SE 8.1 mph - N/A   Clear
11:53 PM 12.0 °F 2.7 °F 8.1 °F 84% 30.17 in 10.0 mi SSE 5.8 mph - N/A   Clear